Time,TemperatureF,DewpointF,PressureIn,WindDirection,WindDirectionDegrees,WindSpeedMPH,WindSpeedGustMPH,Humidity,HourlyPrecipIn,Conditions,Clouds,dailyrainin,SoftwareType,DateUTC
2013-01-24 00:02:00,17.0,9.0,30.37,NNW,344,7.0,14.0,71,0.00,,,0.00,,2013-01-24 06:02:00,
2013-01-24 00:12:00,17.0,9.0,30.37,NNW,344,7.0,14.0,71,0.00,,,0.00,,2013-01-24 06:12:00,
2013-01-24 00:22:00,17.0,9.0,30.38,North,349,8.0,19.0,71,0.00,,,0.00,,2013-01-24 06:22:00,
2013-01-24 00:32:00,17.0,10.0,30.39,North,5,7.0,14.0,72,0.00,,,0.00,,2013-01-24 06:32:00,
2013-01-24 00:42:00,17.0,10.0,30.39,North,5,7.0,14.0,72,0.00,,,0.00,,2013-01-24 06:42:00,
2013-01-24 00:52:00,16.0,9.0,30.42,NNW,342,9.0,15.0,73,0.00,,,0.00,,2013-01-24 06:52:00,
2013-01-24 01:02:00,17.0,10.0,30.42,NNE,28,9.0,16.0,75,0.00,,,0.00,,2013-01-24 07:02:00,
2013-01-24 01:12:00,17.0,10.0,30.42,NNE,28,9.0,16.0,75,0.00,,,0.00,,2013-01-24 07:12:00,
2013-01-24 01:23:00,15.0,8.0,30.44,NNE,25,13.0,23.0,72,0.00,,,0.00,,2013-01-24 07:23:00,
2013-01-24 01:33:00,15.0,7.0,30.45,North,350,10.0,19.0,69,0.00,,,0.00,,2013-01-24 07:33:00,
2013-01-24 01:42:00,15.0,7.0,30.45,North,350,10.0,19.0,69,0.00,,,0.00,,2013-01-24 07:42:00,
2013-01-24 01:53:00,15.0,5.0,30.46,NNE,33,8.0,18.0,64,0.00,,,0.00,,2013-01-24 07:53:00,
2013-01-24 02:02:00,14.0,4.0,30.47,NNW,338,8.0,19.0,64,0.00,,,0.00,,2013-01-24 08:02:00,
2013-01-24 02:12:00,14.0,4.0,30.47,NNW,338,8.0,19.0,64,0.00,,,0.00,,2013-01-24 08:12:00,
2013-01-24 02:22:00,13.0,4.0,30.48,NNE,20,11.0,19.0,66,0.00,,,0.00,,2013-01-24 08:22:00,
2013-01-24 02:33:00,13.0,4.0,30.49,North,355,6.0,17.0,68,0.00,,,0.00,,2013-01-24 08:33:00,
2013-01-24 02:42:00,13.0,4.0,30.49,North,355,6.0,17.0,68,0.00,,,0.00,,2013-01-24 08:42:00,
2013-01-24 02:53:00,12.0,4.0,30.50,North,355,8.0,16.0,69,0.00,,,0.00,,2013-01-24 08:53:00,
2013-01-24 03:02:00,12.0,3.0,30.50,NNW,342,10.0,15.0,67,0.00,,,0.00,,2013-01-24 09:02:00,
2013-01-24 03:12:00,12.0,3.0,30.50,NNW,342,10.0,15.0,67,0.00,,,0.00,,2013-01-24 09:12:00,
2013-01-24 03:23:00,12.0,4.0,30.51,North,10,7.0,14.0,68,0.00,,,0.00,,2013-01-24 09:23:00,
2013-01-24 03:33:00,11.0,3.0,30.51,NW,315,7.0,12.0,71,0.00,,,0.00,,2013-01-24 09:33:00,
2013-01-24 03:43:00,11.0,3.0,30.51,NW,315,7.0,12.0,71,0.00,,,0.00,,2013-01-24 09:43:00,
2013-01-24 03:53:00,11.0,3.0,30.51,NE,34,7.0,14.0,70,0.00,,,0.00,,2013-01-24 09:53:00,
2013-01-24 04:02:00,11.0,3.0,30.52,North,350,6.0,12.0,70,0.00,,,0.00,,2013-01-24 10:02:00,
2013-01-24 04:12:00,11.0,3.0,30.52,North,350,6.0,12.0,70,0.00,,,0.00,,2013-01-24 10:12:00,
2013-01-24 04:23:00,10.0,2.0,30.54,North,355,8.0,13.0,70,0.00,,,0.00,,2013-01-24 10:23:00,
2013-01-24 04:33:00,10.0,2.0,30.54,North,349,7.0,12.0,70,0.00,,,0.00,,2013-01-24 10:33:00,
2013-01-24 04:43:00,10.0,2.0,30.54,North,349,7.0,12.0,70,0.00,,,0.00,,2013-01-24 10:43:00,
2013-01-24 04:53:00,10.0,2.0,30.54,North,360,8.0,16.0,68,0.00,,,0.00,,2013-01-24 10:53:00,
2013-01-24 05:02:00,9.0,1.0,30.55,North,10,9.0,15.0,68,0.00,,,0.00,,2013-01-24 11:02:00,
2013-01-24 05:12:00,9.0,1.0,30.55,North,10,9.0,15.0,68,0.00,,,0.00,,2013-01-24 11:12:00,
2013-01-24 05:23:00,9.0,1.0,30.57,North,5,8.0,15.0,68,0.00,,,0.00,,2013-01-24 11:23:00,
2013-01-24 05:33:00,9.0,1.0,30.58,NE,40,7.0,14.0,68,0.00,,,0.00,,2013-01-24 11:33:00,
2013-01-24 05:43:00,9.0,1.0,30.58,NE,40,7.0,14.0,68,0.00,,,0.00,,2013-01-24 11:43:00,
2013-01-24 05:53:00,9.0,0.0,30.57,NNE,15,8.0,14.0,67,0.00,,,0.00,,2013-01-24 11:53:00,
2013-01-24 06:03:00,9.0,1.0,30.58,North,355,5.0,11.0,69,0.00,,,0.00,,2013-01-24 12:03:00,
2013-01-24 06:12:00,9.0,1.0,30.58,North,355,5.0,11.0,69,0.00,,,0.00,,2013-01-24 12:12:00,
2013-01-24 06:22:00,9.0,2.0,30.59,NNW,347,6.0,13.0,71,0.00,,,0.00,,2013-01-24 12:22:00,
2013-01-24 06:33:00,8.0,0.0,30.58,North,360,6.0,15.0,70,0.00,,,0.00,,2013-01-24 12:33:00,
2013-01-24 06:43:00,8.0,0.0,30.58,North,360,6.0,15.0,70,0.00,,,0.00,,2013-01-24 12:43:00,
2013-01-24 06:53:00,8.0,0.0,30.59,North,11,6.0,11.0,68,0.00,,,0.00,,2013-01-24 12:53:00,
2013-01-24 07:03:00,8.0,0.0,30.59,NNE,18,6.0,11.0,69,0.00,,,0.00,,2013-01-24 13:03:00,
2013-01-24 07:13:00,8.0,0.0,30.59,NNE,18,6.0,11.0,69,0.00,,,0.00,,2013-01-24 13:13:00,
2013-01-24 07:22:00,8.0,-1.0,30.60,NE,36,8.0,13.0,67,0.00,,,0.00,,2013-01-24 13:22:00,
2013-01-24 07:33:00,8.0,0.0,30.60,NNE,22,5.0,9.0,68,0.00,,,0.00,,2013-01-24 13:33:00,
2013-01-24 07:42:00,8.0,0.0,30.60,NNE,22,5.0,9.0,68,0.00,,,0.00,,2013-01-24 13:42:00,
2013-01-24 07:53:00,8.0,0.0,30.61,North,10,5.0,11.0,68,0.00,,,0.00,,2013-01-24 13:53:00,
2013-01-24 08:02:00,8.0,0.0,30.61,NNE,16,5.0,10.0,68,0.00,,,0.00,,2013-01-24 14:02:00,
2013-01-24 08:12:00,8.0,0.0,30.61,NNE,16,5.0,10.0,68,0.00,,,0.00,,2013-01-24 14:12:00,
2013-01-24 08:23:00,9.0,0.0,30.61,NNW,346,4.0,9.0,67,0.00,,,0.00,,2013-01-24 14:23:00,
2013-01-24 08:33:00,9.0,0.0,30.62,North,355,5.0,10.0,66,0.00,,,0.00,,2013-01-24 14:33:00,
2013-01-24 08:43:00,9.0,0.0,30.62,North,355,5.0,10.0,66,0.00,,,0.00,,2013-01-24 14:43:00,
2013-01-24 08:53:00,9.0,0.0,30.62,North,355,5.0,10.0,66,0.00,,,0.00,,2013-01-24 14:53:00,
2013-01-24 09:03:00,10.0,1.0,30.63,NNE,16,6.0,11.0,65,0.00,,,0.00,,2013-01-24 15:03:00,
2013-01-24 09:12:00,10.0,1.0,30.63,NNE,16,6.0,11.0,65,0.00,,,0.00,,2013-01-24 15:12:00,
2013-01-24 09:22:00,10.0,1.0,30.64,NNE,16,5.0,11.0,66,0.00,,,0.00,,2013-01-24 15:22:00,
2013-01-24 09:33:00,10.0,1.0,30.64,NNE,16,5.0,11.0,66,0.00,,,0.00,,2013-01-24 15:33:00,
2013-01-24 09:43:00,11.0,1.0,30.66,NNE,31,5.0,9.0,64,0.00,,,0.00,,2013-01-24 15:43:00,
2013-01-24 09:53:00,12.0,2.0,30.66,North,349,4.0,9.0,64,0.00,,,0.00,,2013-01-24 15:53:00,
2013-01-24 10:03:00,12.0,2.0,30.66,North,9,1.0,8.0,64,0.00,,,0.00,,2013-01-24 16:03:00,
2013-01-24 10:12:00,12.0,2.0,30.66,North,9,1.0,8.0,64,0.00,,,0.00,,2013-01-24 16:12:00,
2013-01-24 10:23:00,12.0,2.0,30.66,North,9,1.0,8.0,64,0.00,,,0.00,,2013-01-24 16:23:00,
2013-01-24 10:33:00,14.0,3.0,30.66,NNE,19,4.0,9.0,62,0.00,,,0.00,,2013-01-24 16:33:00,
2013-01-24 10:43:00,14.0,3.0,30.66,NNE,19,4.0,9.0,62,0.00,,,0.00,,2013-01-24 16:43:00,
2013-01-24 11:02:00,17.0,5.0,30.65,East,88,3.0,7.0,58,0.00,,,0.00,,2013-01-24 17:02:00,
2013-01-24 11:12:00,17.0,5.0,30.65,East,88,3.0,7.0,58,0.00,,,0.00,,2013-01-24 17:12:00,
2013-01-24 11:22:00,17.0,5.0,30.65,East,88,3.0,7.0,58,0.00,,,0.00,,2013-01-24 17:22:00,
2013-01-24 11:32:00,17.0,4.0,30.65,ENE,78,5.0,10.0,57,0.00,,,0.00,,2013-01-24 17:32:00,
2013-01-24 11:42:00,17.0,4.0,30.65,ENE,78,5.0,10.0,57,0.00,,,0.00,,2013-01-24 17:42:00,
2013-01-24 11:52:00,18.0,5.0,30.65,ENE,74,4.0,12.0,56,0.00,,,0.00,,2013-01-24 17:52:00,
2013-01-24 12:02:00,19.0,6.0,30.65,ESE,105,4.0,14.0,56,0.00,,,0.00,,2013-01-24 18:02:00,
2013-01-24 12:12:00,19.0,6.0,30.63,NE,42,5.0,10.0,56,0.00,,,0.00,,2013-01-24 18:12:00,
2013-01-24 12:22:00,19.0,6.0,30.63,NE,42,5.0,10.0,56,0.00,,,0.00,,2013-01-24 18:22:00,
2013-01-24 12:33:00,20.0,6.0,30.62,ESE,102,6.0,12.0,55,0.00,,,0.00,,2013-01-24 18:33:00,
2013-01-24 12:42:00,20.0,6.0,30.62,ESE,102,6.0,12.0,55,0.00,,,0.00,,2013-01-24 18:42:00,
2013-01-24 12:52:00,19.0,7.0,30.60,East,81,6.0,11.0,58,0.00,,,0.00,,2013-01-24 18:52:00,
2013-01-24 13:02:00,19.0,7.0,30.60,East,92,4.0,10.0,58,0.00,,,0.00,,2013-01-24 19:02:00,
2013-01-24 13:12:00,19.0,7.0,30.60,East,92,4.0,10.0,58,0.00,,,0.00,,2013-01-24 19:12:00,
2013-01-24 13:22:00,20.0,8.0,30.60,NE,53,6.0,10.0,58,0.00,,,0.00,,2013-01-24 19:22:00,
2013-01-24 13:33:00,21.0,9.0,30.60,SSE,148,5.0,9.0,59,0.00,,,0.00,,2013-01-24 19:33:00,
2013-01-24 13:42:00,21.0,9.0,30.60,SSE,148,5.0,9.0,59,0.00,,,0.00,,2013-01-24 19:42:00,
2013-01-24 13:52:00,21.0,9.0,30.59,ESE,116,6.0,10.0,58,0.00,,,0.00,,2013-01-24 19:52:00,
2013-01-24 14:02:00,22.0,9.0,30.58,ESE,106,4.0,13.0,57,0.00,,,0.00,,2013-01-24 20:02:00,
2013-01-24 14:11:00,22.0,9.0,30.58,ESE,106,4.0,13.0,57,0.00,,,0.00,,2013-01-24 20:11:00,
2013-01-24 14:22:00,22.0,9.0,30.57,ESE,121,5.0,8.0,57,0.00,,,0.00,,2013-01-24 20:22:00,
2013-01-24 14:32:00,22.0,9.0,30.57,SE,131,3.0,10.0,57,0.00,,,0.00,,2013-01-24 20:32:00,
2013-01-24 14:42:00,22.0,9.0,30.57,SE,131,3.0,10.0,57,0.00,,,0.00,,2013-01-24 20:42:00,
2013-01-24 14:52:00,22.0,9.0,30.56,ESE,106,5.0,10.0,57,0.00,,,0.00,,2013-01-24 20:52:00,
2013-01-24 15:02:00,22.0,9.0,30.56,ESE,113,5.0,10.0,57,0.00,,,0.00,,2013-01-24 21:02:00,
2013-01-24 15:12:00,22.0,9.0,30.56,ESE,113,5.0,10.0,57,0.00,,,0.00,,2013-01-24 21:12:00,
2013-01-24 15:22:00,23.0,10.0,30.55,SE,139,6.0,12.0,58,0.00,,,0.00,,2013-01-24 21:22:00,
2013-01-24 15:33:00,23.0,10.0,30.55,SE,139,6.0,12.0,58,0.00,,,0.00,,2013-01-24 21:33:00,
2013-01-24 15:43:00,23.0,10.0,30.55,SE,139,6.0,12.0,58,0.00,,,0.00,,2013-01-24 21:43:00,
2013-01-24 15:52:00,23.0,10.0,30.54,ESE,107,6.0,11.0,58,0.00,,,0.00,,2013-01-24 21:52:00,
2013-01-24 16:03:00,23.0,10.0,30.53,SE,136,6.0,11.0,57,0.00,,,0.00,,2013-01-24 22:03:00,
2013-01-24 16:12:00,23.0,10.0,30.53,SE,136,6.0,11.0,57,0.00,,,0.00,,2013-01-24 22:12:00,
2013-01-24 16:22:00,23.0,10.0,30.52,SSE,151,6.0,12.0,57,0.00,,,0.00,,2013-01-24 22:22:00,
2013-01-24 16:32:00,23.0,9.0,30.50,SE,140,4.0,11.0,54,0.00,,,0.00,,2013-01-24 22:32:00,
2013-01-24 16:42:00,23.0,9.0,30.50,SE,140,4.0,11.0,54,0.00,,,0.00,,2013-01-24 22:42:00,
2013-01-24 16:52:00,23.0,8.0,30.51,ESE,105,3.0,12.0,53,0.00,,,0.00,,2013-01-24 22:52:00,
2013-01-24 17:02:00,23.0,8.0,30.52,ESE,118,2.0,9.0,53,0.00,,,0.00,,2013-01-24 23:02:00,
2013-01-24 17:12:00,23.0,8.0,30.52,ESE,118,2.0,9.0,53,0.00,,,0.00,,2013-01-24 23:12:00,
2013-01-24 17:22:00,23.0,8.0,30.51,ESE,121,6.0,12.0,52,0.00,,,0.00,,2013-01-24 23:22:00,
2013-01-24 17:32:00,23.0,8.0,30.51,SE,134,5.0,10.0,53,0.00,,,0.00,,2013-01-24 23:32:00,
2013-01-24 17:42:00,23.0,8.0,30.51,SE,134,5.0,10.0,53,0.00,,,0.00,,2013-01-24 23:42:00,
2013-01-24 17:52:00,23.0,8.0,30.51,SE,134,5.0,10.0,53,0.00,,,0.00,,2013-01-24 23:52:00,
2013-01-24 18:02:00,23.0,8.0,30.50,ESE,104,5.0,10.0,53,0.00,,,0.00,,2013-01-25 00:02:00,
2013-01-24 18:12:00,23.0,8.0,30.50,ESE,104,5.0,10.0,53,0.00,,,0.00,,2013-01-25 00:12:00,
2013-01-24 18:22:00,23.0,8.0,30.50,ESE,104,5.0,10.0,53,0.00,,,0.00,,2013-01-25 00:22:00,
2013-01-24 18:32:00,22.0,8.0,30.49,ESE,110,6.0,10.0,54,0.00,,,0.00,,2013-01-25 00:32:00,
2013-01-24 18:42:00,22.0,8.0,30.49,ESE,110,6.0,10.0,54,0.00,,,0.00,,2013-01-25 00:42:00,
2013-01-24 18:53:00,22.0,8.0,30.48,ESE,123,7.0,12.0,54,0.00,,,0.00,,2013-01-25 00:53:00,
2013-01-24 19:02:00,22.0,8.0,30.48,SE,126,7.0,12.0,54,0.00,,,0.00,,2013-01-25 01:02:00,
2013-01-24 19:12:00,22.0,8.0,30.48,SE,126,7.0,12.0,54,0.00,,,0.00,,2013-01-25 01:12:00,
2013-01-24 19:22:00,22.0,8.0,30.46,ESE,120,4.0,11.0,55,0.00,,,0.00,,2013-01-25 01:22:00,
2013-01-24 19:32:00,22.0,9.0,30.47,ESE,104,3.0,11.0,56,0.00,,,0.00,,2013-01-25 01:32:00,
2013-01-24 19:42:00,22.0,9.0,30.47,ESE,104,3.0,11.0,56,0.00,,,0.00,,2013-01-25 01:42:00,
2013-01-24 19:52:00,22.0,9.0,30.46,SE,127,5.0,12.0,56,0.00,,,0.00,,2013-01-25 01:52:00,
2013-01-24 20:02:00,22.0,9.0,30.45,SE,136,7.0,14.0,56,0.00,,,0.00,,2013-01-25 02:02:00,
2013-01-24 20:11:00,22.0,9.0,30.45,SE,136,7.0,14.0,56,0.00,,,0.00,,2013-01-25 02:11:00,
2013-01-24 20:22:00,22.0,9.0,30.44,SE,137,5.0,12.0,57,0.00,,,0.00,,2013-01-25 02:22:00,
2013-01-24 20:32:00,22.0,10.0,30.44,ESE,109,5.0,10.0,58,0.00,,,0.00,,2013-01-25 02:32:00,
2013-01-24 20:42:00,22.0,10.0,30.44,ESE,109,5.0,10.0,58,0.00,,,0.00,,2013-01-25 02:42:00,
2013-01-24 20:52:00,22.0,10.0,30.44,SE,126,7.0,12.0,58,0.00,,,0.00,,2013-01-25 02:52:00,
2013-01-24 21:02:00,22.0,9.0,30.44,SE,144,4.0,13.0,57,0.00,,,0.00,,2013-01-25 03:02:00,
2013-01-24 21:12:00,22.0,9.0,30.43,ESE,123,5.0,10.0,57,0.00,,,0.00,,2013-01-25 03:12:00,
2013-01-24 21:22:00,22.0,9.0,30.43,ESE,123,5.0,10.0,57,0.00,,,0.00,,2013-01-25 03:22:00,
2013-01-24 21:33:00,22.0,9.0,30.42,SE,134,7.0,13.0,56,0.00,,,0.00,,2013-01-25 03:33:00,
2013-01-24 21:42:00,22.0,9.0,30.42,SE,134,7.0,13.0,56,0.00,,,0.00,,2013-01-25 03:42:00,
2013-01-24 21:52:00,22.0,9.0,30.40,ESE,115,8.0,12.0,56,0.00,,,0.00,,2013-01-25 03:52:00,
2013-01-24 22:02:00,22.0,9.0,30.39,ESE,117,7.0,17.0,56,0.00,,,0.00,,2013-01-25 04:02:00,
2013-01-24 22:12:00,22.0,9.0,30.39,ESE,117,7.0,17.0,56,0.00,,,0.00,,2013-01-25 04:12:00,
2013-01-24 22:22:00,22.0,9.0,30.39,SE,130,5.0,13.0,57,0.00,,,0.00,,2013-01-25 04:22:00,
2013-01-24 22:32:00,22.0,9.0,30.39,ESE,111,6.0,15.0,57,0.00,,,0.00,,2013-01-25 04:32:00,
2013-01-24 22:42:00,22.0,9.0,30.39,ESE,111,6.0,15.0,57,0.00,,,0.00,,2013-01-25 04:42:00,
2013-01-24 22:51:00,22.0,9.0,30.40,SE,126,6.0,13.0,57,0.00,,,0.00,,2013-01-25 04:51:00,
2013-01-24 23:03:00,22.0,9.0,30.41,ESE,121,5.0,13.0,57,0.00,,,0.00,,2013-01-25 05:03:00,
2013-01-24 23:12:00,22.0,9.0,30.41,ESE,121,5.0,13.0,57,0.00,,,0.00,,2013-01-25 05:12:00,
2013-01-24 23:22:00,22.0,9.0,30.42,SSE,155,3.0,11.0,57,0.00,,,0.00,,2013-01-25 05:22:00,
2013-01-24 23:32:00,22.0,9.0,30.40,SE,129,6.0,12.0,56,0.00,,,0.00,,2013-01-25 05:32:00,
2013-01-24 23:43:00,22.0,9.0,30.40,SE,129,6.0,12.0,56,0.00,,,0.00,,2013-01-25 05:43:00,
2013-01-24 23:52:00,22.0,8.0,30.38,ESE,119,7.0,12.0,55,0.00,,,0.00,,2013-01-25 05:52:00,